Wetterdaten: Sonntag, 20.03.2016
Datum Zeit Auen-Temp. Temp gefhlt Luftfeuchte Luftdruck Regen Wind Richtung Richtung Sonnenschein Taupunkt Windben
20.03.2016 00:00 0,9 C 0,7 C 85 % 1017,5 hPa 0,0 mm 1,2 km/h (1 Bft) O-NO 67 0 min -1,3 C 3,0 km/h (1 Bft)
20.03.2016 00:05 0,9 C 0,7 C 86 % 1017,5 hPa 0,0 mm 1,2 km/h (1 Bft) O-NO 67 0 min -1,2 C 6,6 km/h (2 Bft)
20.03.2016 00:10 0,9 C 0,7 C 86 % 1017,6 hPa 0,0 mm 1,8 km/h (1 Bft) NO 45 0 min -1,2 C 0,0 km/h (0 Bft)
20.03.2016 00:15 0,9 C 0,7 C 86 % 1017,6 hPa 0,0 mm 0,6 km/h (0 Bft) O-NO 67 0 min -1,2 C 0,0 km/h (0 Bft)
20.03.2016 00:20 0,9 C 0,7 C 86 % 1017,6 hPa 0,0 mm 1,8 km/h (1 Bft) O-NO 67 0 min -1,2 C 0,0 km/h (0 Bft)
20.03.2016 00:25 0,9 C 0,7 C 87 % 1017,6 hPa 0,0 mm 2,1 km/h (1 Bft) O-NO 67 0 min -1,0 C 7,7 km/h (2 Bft)
20.03.2016 00:30 0,9 C 0,7 C 87 % 1017,4 hPa 0,0 mm 1,8 km/h (1 Bft) O-NO 67 0 min -1,0 C 0,0 km/h (0 Bft)
20.03.2016 00:35 0,9 C 0,7 C 87 % 1017,4 hPa 0,0 mm 2,7 km/h (1 Bft) NO 45 0 min -1,0 C 8,9 km/h (2 Bft)
20.03.2016 00:40 0,9 C 0,7 C 87 % 1017,4 hPa 0,0 mm 2,4 km/h (1 Bft) O-NO 67 0 min -1,0 C 3,0 km/h (1 Bft)
20.03.2016 00:45 0,9 C 0,7 C 87 % 1017,4 hPa 0,0 mm 2,7 km/h (1 Bft) O-NO 67 0 min -1,0 C 3,0 km/h (1 Bft)
20.03.2016 00:50 0,9 C 0,7 C 87 % 1017,3 hPa 0,0 mm 2,4 km/h (1 Bft) O-NO 67 0 min -1,0 C 4,2 km/h (1 Bft)
20.03.2016 00:55 0,9 C 0,7 C 87 % 1017,3 hPa 0,0 mm 0,9 km/h (0 Bft) NO 45 0 min -1,0 C 0,0 km/h (0 Bft)
20.03.2016 01:00 0,9 C 0,7 C 87 % 1017,3 hPa 0,0 mm 0,6 km/h (0 Bft) SO 135 0 min -1,0 C 0,0 km/h (0 Bft)
20.03.2016 01:03 0,9 C 0,7 C 87 % 1017,3 hPa 0,0 mm 0,6 km/h (0 Bft) SO 135 0 min -1,0 C 0,0 km/h (0 Bft)
20.03.2016 01:05 0,9 C 0,7 C 87 % 1017,3 hPa 0,0 mm 1,2 km/h (1 Bft) O 90 0 min -1,0 C 4,5 km/h (1 Bft)
20.03.2016 01:10 0,9 C 0,7 C 87 % 1017,4 hPa 0,0 mm 1,8 km/h (1 Bft) O-NO 67 0 min -1,0 C 3,6 km/h (1 Bft)
20.03.2016 01:15 0,9 C 0,7 C 87 % 1017,4 hPa 0,0 mm 3,0 km/h (1 Bft) NO 45 0 min -1,0 C 6,3 km/h (2 Bft)
20.03.2016 01:20 0,9 C 0,7 C 88 % 1017,4 hPa 0,0 mm 3,9 km/h (1 Bft) NO 45 0 min -0,9 C 5,7 km/h (1 Bft)
20.03.2016 01:25 0,9 C 0,7 C 88 % 1017,4 hPa 0,0 mm 4,5 km/h (1 Bft) O-NO 67 0 min -0,9 C 3,3 km/h (1 Bft)
20.03.2016 01:30 0,9 C 0,7 C 88 % 1017,4 hPa 0,0 mm 4,5 km/h (1 Bft) O-NO 67 0 min -0,9 C 7,2 km/h (2 Bft)
20.03.2016 01:35 0,9 C 0,7 C 88 % 1017,4 hPa 0,0 mm 2,4 km/h (1 Bft) NO 45 0 min -0,9 C 0,0 km/h (0 Bft)
20.03.2016 01:40 0,9 C 0,7 C 88 % 1017,4 hPa 0,0 mm 1,5 km/h (1 Bft) NO 45 0 min -0,9 C 3,0 km/h (1 Bft)
20.03.2016 01:45 0,9 C 0,7 C 88 % 1017,4 hPa 0,0 mm 1,2 km/h (1 Bft) O-SO 112 0 min -0,9 C 3,0 km/h (1 Bft)
20.03.2016 01:50 0,8 C 0,6 C 88 % 1017,1 hPa 0,0 mm 1,2 km/h (1 Bft) N-NO 22 0 min -1,0 C 3,0 km/h (1 Bft)
20.03.2016 01:55 0,8 C 0,7 C 82 % 1017,1 hPa 0,0 mm 0,3 km/h (0 Bft) NO 45 0 min -1,9 C 0,0 km/h (0 Bft)
20.03.2016 02:00 0,8 C 0,7 C 82 % 1017,1 hPa 0,0 mm 0,3 km/h (0 Bft) O-NO 67 0 min -1,9 C 4,5 km/h (1 Bft)
20.03.2016 02:05 0,8 C 0,6 C 88 % 1017,1 hPa 0,0 mm 1,2 km/h (1 Bft) O-NO 67 0 min -1,0 C 5,7 km/h (1 Bft)
20.03.2016 02:10 0,8 C 0,6 C 88 % 1016,9 hPa 0,0 mm 2,1 km/h (1 Bft) NO 45 0 min -1,0 C 5,1 km/h (1 Bft)
20.03.2016 02:15 0,7 C 0,5 C 88 % 1016,9 hPa 0,0 mm 2,7 km/h (1 Bft) O 90 0 min -1,1 C 0,0 km/h (0 Bft)
20.03.2016 02:20 0,7 C 0,5 C 89 % 1016,9 hPa 0,0 mm 1,5 km/h (1 Bft) O-NO 67 0 min -0,9 C 4,8 km/h (1 Bft)
20.03.2016 02:25 0,7 C 0,5 C 89 % 1016,9 hPa 0,0 mm 0,3 km/h (0 Bft) SO 135 0 min -0,9 C 0,0 km/h (0 Bft)
20.03.2016 02:30 0,7 C 0,5 C 89 % 1016,7 hPa 0,0 mm 0,6 km/h (0 Bft) NO 45 0 min -0,9 C 0,0 km/h (0 Bft)
20.03.2016 02:35 0,7 C 0,5 C 89 % 1016,7 hPa 0,0 mm 0,9 km/h (0 Bft) O-NO 67 0 min -0,9 C 0,0 km/h (0 Bft)
20.03.2016 02:40 0,7 C 0,5 C 89 % 1016,7 hPa 0,0 mm 0,9 km/h (0 Bft) O-SO 112 0 min -0,9 C 0,0 km/h (0 Bft)
20.03.2016 02:45 0,7 C 0,5 C 89 % 1016,7 hPa 0,0 mm 0,6 km/h (0 Bft) O-NO 67 0 min -0,9 C 0,0 km/h (0 Bft)
20.03.2016 02:50 0,7 C 0,5 C 89 % 1016,4 hPa 0,0 mm 0,6 km/h (0 Bft) NO 45 0 min -0,9 C 5,4 km/h (1 Bft)
20.03.2016 02:55 0,7 C 0,5 C 89 % 1016,4 hPa 0,0 mm 0,6 km/h (0 Bft) O 90 0 min -0,9 C 0,0 km/h (0 Bft)
20.03.2016 03:00 0,7 C 0,5 C 89 % 1016,4 hPa 0,0 mm 1,2 km/h (1 Bft) O 90 0 min -0,9 C 0,0 km/h (0 Bft)
20.03.2016 03:05 0,6 C 0,4 C 89 % 1016,4 hPa 0,0 mm 0,6 km/h (0 Bft) O-SO 112 0 min -1,0 C 0,0 km/h (0 Bft)
20.03.2016 03:10 0,6 C 0,4 C 89 % 1016,2 hPa 0,0 mm 0,3 km/h (0 Bft) SW 225 0 min -1,0 C 0,0 km/h (0 Bft)
20.03.2016 03:15 0,6 C 0,4 C 89 % 1016,2 hPa 0,0 mm 1,5 km/h (1 Bft) S 180 0 min -1,0 C 4,2 km/h (1 Bft)
20.03.2016 03:20 0,6 C 0,4 C 89 % 1016,2 hPa 0,0 mm 2,7 km/h (1 Bft) SW 225 0 min -1,0 C 4,2 km/h (1 Bft)
20.03.2016 03:25 0,5 C 0,4 C 83 % 1016,2 hPa 0,0 mm 2,7 km/h (1 Bft) S-SW 202 0 min -2,0 C 4,5 km/h (1 Bft)
20.03.2016 03:30 0,5 C 0,4 C 84 % 1016,2 hPa 0,0 mm 3,3 km/h (1 Bft) SW 225 0 min -1,9 C 4,5 km/h (1 Bft)
20.03.2016 03:35 0,5 C 0,4 C 84 % 1016,2 hPa 0,0 mm 2,1 km/h (1 Bft) W-SW 247 0 min -1,9 C 0,0 km/h (0 Bft)
20.03.2016 03:40 0,5 C 0,3 C 88 % 1016,2 hPa 0,0 mm 2,4 km/h (1 Bft) SW 225 0 min -1,3 C 6,0 km/h (2 Bft)
20.03.2016 03:45 0,4 C 0,2 C 88 % 1016,2 hPa 0,0 mm 4,2 km/h (1 Bft) SW 225 0 min -1,3 C 5,4 km/h (1 Bft)
20.03.2016 03:50 0,4 C 0,2 C 88 % 1016,1 hPa 0,0 mm 4,2 km/h (1 Bft) W 270 0 min -1,3 C 3,9 km/h (1 Bft)
20.03.2016 03:55 0,4 C 0,2 C 88 % 1016,1 hPa 0,0 mm 3,0 km/h (1 Bft) S 180 0 min -1,3 C 4,2 km/h (1 Bft)
20.03.2016 04:00 0,3 C 0,1 C 88 % 1016,1 hPa 0,0 mm 2,1 km/h (1 Bft) W-SW 247 0 min -1,4 C 0,0 km/h (0 Bft)
20.03.2016 04:03 0,3 C 0,1 C 88 % 1016,1 hPa 0,0 mm 2,1 km/h (1 Bft) W-SW 247 0 min -1,4 C 0,0 km/h (0 Bft)
20.03.2016 04:05 0,3 C 0,1 C 88 % 1016,1 hPa 0,0 mm 0,3 km/h (0 Bft) N-NO 22 0 min -1,4 C 0,0 km/h (0 Bft)
20.03.2016 04:10 0,3 C 0,1 C 88 % 1016,1 hPa 0,0 mm 0,3 km/h (0 Bft) NO 45 0 min -1,4 C 0,0 km/h (0 Bft)
20.03.2016 04:15 0,2 C 0,0 C 88 % 1016,1 hPa 0,0 mm 0,6 km/h (0 Bft) N-NO 22 0 min -1,5 C 0,0 km/h (0 Bft)
20.03.2016 04:20 0,2 C 0,0 C 88 % 1016,1 hPa 0,0 mm 0,3 km/h (0 Bft) W 270 0 min -1,5 C 0,0 km/h (0 Bft)
20.03.2016 04:25 0,0 C -0,1 C 84 % 1016,1 hPa 0,0 mm 0,3 km/h (0 Bft) W 270 0 min -2,4 C 0,0 km/h (0 Bft)
20.03.2016 04:30 0,0 C -0,1 C 84 % 1016,0 hPa 0,0 mm 1,5 km/h (1 Bft) NW 315 0 min -2,4 C 4,8 km/h (1 Bft)
20.03.2016 04:35 0,0 C -0,2 C 88 % 1016,0 hPa 0,0 mm 3,3 km/h (1 Bft) W 270 0 min -1,7 C 4,8 km/h (1 Bft)
20.03.2016 04:40 -0,1 C -0,3 C 88 % 1016,0 hPa 0,0 mm 3,3 km/h (1 Bft) NW 315 0 min -1,8 C 0,0 km/h (0 Bft)
20.03.2016 04:45 -0,2 C -0,3 C 83 % 1016,0 hPa 0,0 mm 3,6 km/h (1 Bft) W 270 0 min -2,7 C 8,9 km/h (2 Bft)
20.03.2016 04:50 -0,3 C -0,4 C 83 % 1016,0 hPa 0,0 mm 3,6 km/h (1 Bft) W-SW 247 0 min -2,8 C 5,1 km/h (1 Bft)
20.03.2016 04:55 -0,5 C -0,6 C 83 % 1016,0 hPa 0,0 mm 4,2 km/h (1 Bft) W-SW 247 0 min -3,0 C 4,2 km/h (1 Bft)
20.03.2016 05:00 -0,6 C -0,7 C 83 % 1016,0 hPa 0,0 mm 3,0 km/h (1 Bft) W-SW 247 0 min -3,1 C 3,0 km/h (1 Bft)
20.03.2016 05:05 -0,6 C -0,8 C 83 % 1016,0 hPa 0,0 mm 1,8 km/h (1 Bft) SW 225 0 min -3,1 C 0,0 km/h (0 Bft)
20.03.2016 05:10 -0,6 C -0,8 C 83 % 1016,0 hPa 0,0 mm 1,2 km/h (1 Bft) W 270 0 min -3,1 C 3,9 km/h (1 Bft)
20.03.2016 05:15 -0,7 C -0,8 C 83 % 1016,0 hPa 0,0 mm 1,5 km/h (1 Bft) SW 225 0 min -3,2 C 3,3 km/h (1 Bft)
20.03.2016 05:20 -0,7 C -0,9 C 83 % 1016,0 hPa 0,0 mm 2,1 km/h (1 Bft) S 180 0 min -3,2 C 3,3 km/h (1 Bft)
20.03.2016 05:25 -0,7 C -0,9 C 83 % 1016,0 hPa 0,0 mm 1,5 km/h (1 Bft) W-SW 247 0 min -3,2 C 0,0 km/h (0 Bft)
20.03.2016 05:30 -0,7 C -0,9 C 83 % 1016,0 hPa 0,0 mm 0,9 km/h (0 Bft) W-SW 247 0 min -3,2 C 0,0 km/h (0 Bft)
20.03.2016 05:35 -0,9 C -0,9 C 83 % 1016,0 hPa 0,0 mm 0,6 km/h (0 Bft) W 270 0 min -3,4 C 0,0 km/h (0 Bft)
20.03.2016 05:40 -0,9 C -1,0 C 83 % 1016,0 hPa 0,0 mm 1,5 km/h (1 Bft) S-SW 202 0 min -3,4 C 0,0 km/h (0 Bft)
20.03.2016 05:45 -1,0 C -1,0 C 83 % 1016,0 hPa 0,0 mm 1,2 km/h (1 Bft) W-SW 247 0 min -3,5 C 0,0 km/h (0 Bft)
20.03.2016 05:50 -1,0 C -1,1 C 84 % 1015,9 hPa 0,0 mm 0,3 km/h (0 Bft) SW 225 0 min -3,4 C 3,6 km/h (1 Bft)
20.03.2016 05:55 -1,0 C -1,1 C 84 % 1015,9 hPa 0,0 mm 0,6 km/h (0 Bft) W-SW 247 0 min -3,4 C 0,0 km/h (0 Bft)
20.03.2016 06:00 -1,0 C -1,1 C 84 % 1015,9 hPa 0,0 mm 0,6 km/h (0 Bft) W-NW 292 0 min -3,4 C 0,0 km/h (0 Bft)
20.03.2016 06:05 -1,1 C -1,2 C 84 % 1015,9 hPa 0,0 mm 0,0 km/h (0 Bft) NW 315 0 min -3,4 C 0,0 km/h (0 Bft)
20.03.2016 06:10 -1,1 C -1,2 C 84 % 1016,1 hPa 0,0 mm 0,3 km/h (0 Bft) W-NW 292 0 min -3,4 C 0,0 km/h (0 Bft)
20.03.2016 06:15 -1,1 C -1,2 C 84 % 1016,1 hPa 0,0 mm 0,9 km/h (0 Bft) N-NW 337 0 min -3,4 C 0,0 km/h (0 Bft)
20.03.2016 06:20 -1,2 C -1,3 C 84 % 1016,1 hPa 0,0 mm 0,6 km/h (0 Bft) O-SO 112 0 min -3,5 C 0,0 km/h (0 Bft)
20.03.2016 06:25 -1,2 C -1,4 C 87 % 1016,1 hPa 0,0 mm 0,0 km/h (0 Bft) O-NO 67 0 min -3,1 C 0,0 km/h (0 Bft)
20.03.2016 06:30 -1,2 C -1,3 C 84 % 1016,1 hPa 0,0 mm 0,0 km/h (0 Bft) SO 135 0 min -3,5 C 0,0 km/h (0 Bft)
20.03.2016 06:35 -1,2 C -1,4 C 88 % 1016,1 hPa 0,0 mm 0,0 km/h (0 Bft) NW 315 0 min -2,9 C 0,0 km/h (0 Bft)
20.03.2016 06:40 -1,2 C -1,4 C 88 % 1016,1 hPa 0,0 mm 0,3 km/h (0 Bft) O-SO 112 0 min -2,9 C 0,0 km/h (0 Bft)
20.03.2016 06:45 -1,3 C -1,5 C 88 % 1016,1 hPa 0,0 mm 1,8 km/h (1 Bft) O-NO 67 0 min -3,0 C 3,6 km/h (1 Bft)
20.03.2016 06:50 -1,3 C -1,4 C 84 % 1016,1 hPa 0,0 mm 2,1 km/h (1 Bft) S-SO 157 0 min -3,6 C 0,0 km/h (0 Bft)
20.03.2016 06:55 -1,5 C -1,4 C 84 % 1016,1 hPa 0,0 mm 1,8 km/h (1 Bft) SW 225 0 min -3,8 C 3,3 km/h (1 Bft)
20.03.2016 07:00 -1,5 C -1,4 C 84 % 1016,1 hPa 0,0 mm 1,2 km/h (1 Bft) W 270 0 min -3,8 C 0,0 km/h (0 Bft)
20.03.2016 07:03 -1,5 C -1,3 C 84 % 1016,1 hPa 0,0 mm 1,2 km/h (1 Bft) NW 315 0 min -3,8 C 0,0 km/h (0 Bft)
20.03.2016 07:04 -1,5 C -1,3 C 84 % 1016,1 hPa 0,0 mm 1,2 km/h (1 Bft) NW 315 0 min -3,8 C 0,0 km/h (0 Bft)
20.03.2016 07:05 -1,5 C -1,3 C 84 % 1016,1 hPa 0,0 mm 1,2 km/h (1 Bft) NW 315 0 min -3,8 C 0,0 km/h (0 Bft)
20.03.2016 07:10 -1,3 C -1,2 C 84 % 1016,3 hPa 0,0 mm 2,1 km/h (1 Bft) W 270 0 min -3,6 C 3,0 km/h (1 Bft)
20.03.2016 07:15 -1,3 C -1,1 C 84 % 1016,3 hPa 0,0 mm 1,8 km/h (1 Bft) W 270 0 min -3,6 C 4,5 km/h (1 Bft)
20.03.2016 07:20 -1,3 C -1,1 C 84 % 1016,3 hPa 0,0 mm 0,9 km/h (0 Bft) W-NW 292 0 min -3,6 C 5,1 km/h (1 Bft)
20.03.2016 07:25 -1,2 C -1,0 C 85 % 1016,3 hPa 0,0 mm 1,8 km/h (1 Bft) N-NW 337 0 min -3,4 C 3,0 km/h (1 Bft)
20.03.2016 07:30 -1,2 C -0,9 C 85 % 1016,1 hPa 0,0 mm 2,7 km/h (1 Bft) N-NW 337 0 min -3,4 C 0,0 km/h (0 Bft)
20.03.2016 07:35 -1,1 C -0,8 C 85 % 1016,1 hPa 0,0 mm 2,1 km/h (1 Bft) NW 315 0 min -3,3 C 4,2 km/h (1 Bft)
20.03.2016 07:40 -1,1 C -0,8 C 85 % 1016,1 hPa 0,0 mm 2,4 km/h (1 Bft) W-SW 247 0 min -3,3 C 0,0 km/h (0 Bft)
20.03.2016 07:45 -1,1 C -0,6 C 85 % 1016,1 hPa 0,0 mm 1,8 km/h (1 Bft) W 270 0 min -3,3 C 0,0 km/h (0 Bft)
20.03.2016 07:50 -1,0 C -0,6 C 85 % 1016,1 hPa 0,0 mm 0,9 km/h (0 Bft) W 270 0 min -3,2 C 3,0 km/h (1 Bft)
20.03.2016 07:55 -1,1 C -0,5 C 85 % 1016,1 hPa 0,0 mm 1,2 km/h (1 Bft) W-SW 247 0 min -3,3 C 3,0 km/h (1 Bft)
20.03.2016 08:00 -1,0 C -0,4 C 85 % 1016,1 hPa 0,0 mm 1,5 km/h (1 Bft) W-NW 292 0 min -3,2 C 0,0 km/h (0 Bft)
20.03.2016 08:05 -1,0 C -0,1 C 85 % 1016,1 hPa 0,0 mm 0,6 km/h (0 Bft) S-SW 202 0 min -3,2 C 0,0 km/h (0 Bft)
20.03.2016 08:10 -0,8 C 0,1 C 85 % 1016,3 hPa 0,0 mm 0,3 km/h (0 Bft) NW 315 0 min -3,0 C 3,0 km/h (1 Bft)
20.03.2016 08:15 -0,7 C 0,1 C 85 % 1016,3 hPa 0,0 mm 2,1 km/h (1 Bft) NW 315 0 min -2,9 C 0,0 km/h (0 Bft)
20.03.2016 08:20 -0,7 C 0,1 C 85 % 1016,3 hPa 0,0 mm 2,7 km/h (1 Bft) N-NW 337 0 min -2,9 C 4,8 km/h (1 Bft)
20.03.2016 08:25 -0,6 C 0,2 C 85 % 1016,3 hPa 0,0 mm 1,8 km/h (1 Bft) O-SO 112 0 min -2,8 C 4,5 km/h (1 Bft)
20.03.2016 08:30 -0,6 C 0,2 C 85 % 1016,4 hPa 0,0 mm 3,0 km/h (1 Bft) NW 315 0 min -2,8 C 6,0 km/h (2 Bft)
20.03.2016 08:35 -0,7 C -0,2 C 85 % 1016,4 hPa 0,0 mm 6,0 km/h (2 Bft) W 270 0 min -2,9 C 5,4 km/h (1 Bft)
20.03.2016 08:40 -0,9 C -0,2 C 85 % 1016,4 hPa 0,0 mm 6,0 km/h (2 Bft) W 270 0 min -3,1 C 4,8 km/h (1 Bft)
20.03.2016 08:45 -0,7 C 0,2 C 85 % 1016,4 hPa 0,0 mm 3,6 km/h (1 Bft) NW 315 0 min -2,9 C 4,2 km/h (1 Bft)
20.03.2016 08:50 -0,7 C 0,3 C 85 % 1016,7 hPa 0,0 mm 2,4 km/h (1 Bft) O 90 0 min -2,9 C 6,6 km/h (2 Bft)
20.03.2016 08:55 -0,7 C 0,4 C 85 % 1016,7 hPa 0,0 mm 3,9 km/h (1 Bft) S-SW 202 0 min -2,9 C 3,9 km/h (1 Bft)
20.03.2016 09:00 -0,9 C 0,5 C 85 % 1016,7 hPa 0,0 mm 4,5 km/h (1 Bft) N-NW 337 0 min -3,1 C 7,5 km/h (2 Bft)
20.03.2016 09:05 -0,6 C 0,8 C 85 % 1016,7 hPa 0,0 mm 3,3 km/h (1 Bft) N-NW 337 0 min -2,8 C 3,9 km/h (1 Bft)
20.03.2016 09:10 -0,6 C 1,0 C 85 % 1016,7 hPa 0,0 mm 3,6 km/h (1 Bft) W-NW 292 0 min -2,8 C 6,9 km/h (2 Bft)
20.03.2016 09:15 -0,6 C 1,2 C 85 % 1016,7 hPa 0,0 mm 3,9 km/h (1 Bft) NW 315 0 min -2,8 C 5,1 km/h (1 Bft)
20.03.2016 09:20 -0,5 C 1,2 C 85 % 1016,7 hPa 0,0 mm 4,2 km/h (1 Bft) NW 315 0 min -2,7 C 3,6 km/h (1 Bft)
20.03.2016 09:25 -0,3 C 1,6 C 85 % 1016,7 hPa 0,0 mm 3,9 km/h (1 Bft) NW 315 0 min -2,5 C 5,1 km/h (1 Bft)
20.03.2016 09:30 -0,3 C 1,9 C 85 % 1016,8 hPa 0,0 mm 3,3 km/h (1 Bft) NW 315 0 min -2,5 C 4,2 km/h (1 Bft)
20.03.2016 09:35 -0,2 C 2,3 C 85 % 1016,8 hPa 0,0 mm 4,2 km/h (1 Bft) NW 315 0 min -2,4 C 7,2 km/h (2 Bft)
20.03.2016 09:40 -0,2 C 2,2 C 85 % 1016,8 hPa 0,0 mm 5,4 km/h (1 Bft) N 360 0 min -2,4 C 5,4 km/h (1 Bft)
20.03.2016 09:45 0,0 C 2,1 C 85 % 1016,8 hPa 0,0 mm 6,0 km/h (2 Bft) NW 315 0 min -2,2 C 9,2 km/h (2 Bft)
20.03.2016 09:50 0,2 C 2,4 C 85 % 1016,7 hPa 0,0 mm 4,8 km/h (1 Bft) W-SW 247 0 min -2,0 C 3,9 km/h (1 Bft)
20.03.2016 09:55 0,4 C 3,0 C 86 % 1016,7 hPa 0,0 mm 3,0 km/h (1 Bft) N-NW 337 0 min -1,7 C 3,6 km/h (1 Bft)
20.03.2016 10:00 0,6 C 3,6 C 86 % 1016,7 hPa 0,0 mm 2,4 km/h (1 Bft) N-NW 337 0 min -1,5 C 5,1 km/h (1 Bft)
20.03.2016 10:03 0,6 C 4,2 C 85 % 1016,7 hPa 0,0 mm 2,1 km/h (1 Bft) NO 45 3 min -1,6 C 0,0 km/h (0 Bft)
20.03.2016 10:05 0,6 C 4,2 C 85 % 1016,7 hPa 0,0 mm 2,1 km/h (1 Bft) NO 45 2 min -1,6 C 0,0 km/h (0 Bft)
20.03.2016 10:10 0,8 C 4,7 C 85 % 1016,8 hPa 0,0 mm 1,5 km/h (1 Bft) W 270 0 min -1,4 C 3,0 km/h (1 Bft)
20.03.2016 10:15 1,1 C 5,4 C 85 % 1016,8 hPa 0,0 mm 1,8 km/h (1 Bft) W-NW 292 5 min -1,1 C 6,0 km/h (2 Bft)
20.03.2016 10:20 1,1 C 5,5 C 85 % 1016,8 hPa 0,0 mm 3,9 km/h (1 Bft) W-NW 292 5 min -1,1 C 10,7 km/h (2 Bft)
20.03.2016 10:25 1,1 C 5,4 C 85 % 1016,8 hPa 0,0 mm 5,1 km/h (1 Bft) W-SW 247 5 min -1,1 C 3,0 km/h (1 Bft)
20.03.2016 10:30 1,4 C 5,8 C 85 % 1016,8 hPa 0,0 mm 3,6 km/h (1 Bft) NW 315 0 min -0,8 C 0,0 km/h (0 Bft)
20.03.2016 10:35 1,7 C 6,5 C 84 % 1016,8 hPa 0,0 mm 1,8 km/h (1 Bft) N-NO 22 5 min -0,7 C 7,2 km/h (2 Bft)
20.03.2016 10:40 1,9 C 6,5 C 84 % 1016,8 hPa 0,0 mm 3,0 km/h (1 Bft) N-NO 22 5 min -0,5 C 0,0 km/h (0 Bft)
20.03.2016 10:45 2,2 C 7,3 C 83 % 1016,8 hPa 0,0 mm 1,8 km/h (1 Bft) O-SO 112 5 min -0,4 C 0,0 km/h (0 Bft)
20.03.2016 10:50 2,5 C 8,4 C 83 % 1016,6 hPa 0,0 mm 0,3 km/h (0 Bft) O-SO 112 5 min -0,1 C 0,0 km/h (0 Bft)
20.03.2016 10:55 2,8 C 9,5 C 82 % 1016,6 hPa 0,0 mm 1,8 km/h (1 Bft) O-NO 67 5 min 0,0 C 5,1 km/h (1 Bft)
20.03.2016 11:00 2,8 C 9,7 C 82 % 1016,6 hPa 0,0 mm 3,0 km/h (1 Bft) O-NO 67 5 min 0,0 C 7,7 km/h (2 Bft)
20.03.2016 11:05 3,4 C 10,3 C 81 % 1016,6 hPa 0,0 mm 4,5 km/h (1 Bft) O-NO 67 5 min 0,5 C 11,3 km/h (2 Bft)
20.03.2016 11:10 3,7 C 10,6 C 80 % 1017,0 hPa 0,0 mm 4,8 km/h (1 Bft) O-NO 67 5 min 0,6 C 8,6 km/h (2 Bft)
20.03.2016 11:15 3,6 C 10,6 C 79 % 1017,0 hPa 0,0 mm 5,1 km/h (1 Bft) SO 135 5 min 0,3 C 11,9 km/h (2 Bft)
20.03.2016 11:20 3,9 C 10,9 C 79 % 1017,0 hPa 0,0 mm 5,4 km/h (1 Bft) O-NO 67 5 min 0,6 C 6,3 km/h (2 Bft)
20.03.2016 11:25 4,7 C 11,6 C 78 % 1017,0 hPa 0,0 mm 3,9 km/h (1 Bft) O 90 5 min 1,2 C 6,0 km/h (2 Bft)
20.03.2016 11:30 4,7 C 11,6 C 78 % 1017,3 hPa 0,0 mm 4,5 km/h (1 Bft) NO 45 5 min 1,2 C 5,4 km/h (1 Bft)
20.03.2016 11:35 4,8 C 11,8 C 76 % 1017,3 hPa 0,0 mm 4,8 km/h (1 Bft) O-NO 67 5 min 0,9 C 3,3 km/h (1 Bft)
20.03.2016 11:40 5,5 C 12,2 C 76 % 1017,3 hPa 0,0 mm 3,9 km/h (1 Bft) O 90 5 min 1,6 C 5,1 km/h (1 Bft)
20.03.2016 11:45 5,9 C 12,5 C 75 % 1017,3 hPa 0,0 mm 3,6 km/h (1 Bft) NO 45 5 min 1,8 C 4,2 km/h (1 Bft)
20.03.2016 11:50 6,0 C 12,8 C 73 % 1017,5 hPa 0,0 mm 3,9 km/h (1 Bft) SO 135 5 min 1,5 C 3,9 km/h (1 Bft)
20.03.2016 11:55 5,9 C 12,9 C 73 % 1017,5 hPa 0,0 mm 5,1 km/h (1 Bft) O-NO 67 5 min 1,4 C 7,7 km/h (2 Bft)
20.03.2016 12:00 6,1 C 12,8 C 72 % 1017,5 hPa 0,0 mm 5,1 km/h (1 Bft) NO 45 5 min 1,4 C 0,0 km/h (0 Bft)
20.03.2016 12:05 6,5 C 13,1 C 71 % 1017,5 hPa 0,0 mm 5,4 km/h (1 Bft) N 360 5 min 1,6 C 8,9 km/h (2 Bft)
20.03.2016 12:10 6,9 C 13,2 C 71 % 1017,8 hPa 0,0 mm 4,8 km/h (1 Bft) N-NO 22 5 min 2,0 C 8,0 km/h (2 Bft)
20.03.2016 12:15 7,0 C 12,4 C 70 % 1017,8 hPa 0,0 mm 5,1 km/h (1 Bft) O-NO 67 5 min 1,9 C 0,0 km/h (0 Bft)
20.03.2016 12:20 7,1 C 12,3 C 69 % 1017,8 hPa 0,0 mm 4,8 km/h (1 Bft) O-NO 67 5 min 1,8 C 9,2 km/h (2 Bft)
20.03.2016 12:25 7,4 C 11,6 C 68 % 1017,8 hPa 0,0 mm 3,6 km/h (1 Bft) O-NO 67 5 min 1,9 C 8,3 km/h (2 Bft)
20.03.2016 12:30 7,5 C 11,4 C 68 % 1017,6 hPa 0,0 mm 4,5 km/h (1 Bft) NW 315 0 min 2,0 C 8,3 km/h (2 Bft)
20.03.2016 12:35 8,2 C 12,2 C 68 % 1017,6 hPa 0,0 mm 4,8 km/h (1 Bft) W-SW 247 0 min 2,7 C 4,2 km/h (1 Bft)
20.03.2016 12:40 8,6 C 12,8 C 67 % 1017,6 hPa 0,0 mm 5,4 km/h (1 Bft) W 270 0 min 2,8 C 5,1 km/h (1 Bft)
20.03.2016 12:45 9,2 C 14,6 C 64 % 1017,6 hPa 0,0 mm 3,6 km/h (1 Bft) S 180 5 min 2,8 C 6,0 km/h (2 Bft)
20.03.2016 12:50 8,5 C 15,3 C 63 % 1017,4 hPa 0,0 mm 3,0 km/h (1 Bft) S 180 5 min 1,9 C 0,0 km/h (0 Bft)
20.03.2016 12:55 9,1 C 15,9 C 63 % 1017,4 hPa 0,0 mm 2,7 km/h (1 Bft) NW 315 5 min 2,4 C 8,6 km/h (2 Bft)
20.03.2016 13:00 9,6 C 16,3 C 64 % 1017,4 hPa 0,0 mm 3,0 km/h (1 Bft) W 270 5 min 3,1 C 7,2 km/h (2 Bft)
20.03.2016 13:03 9,7 C 16,7 C 60 % 1017,4 hPa 0,0 mm 3,3 km/h (1 Bft) SW 225 3 min 2,3 C 3,3 km/h (1 Bft)
20.03.2016 13:06 9,7 C 16,7 C 60 % 1017,4 hPa 0,0 mm 3,3 km/h (1 Bft) SW 225 3 min 2,3 C 3,3 km/h (1 Bft)
20.03.2016 13:10 9,5 C 17,0 C 59 % 1017,1 hPa 0,0 mm 3,0 km/h (1 Bft) S-SW 202 4 min 1,9 C 4,2 km/h (1 Bft)
20.03.2016 13:15 9,6 C 16,8 C 59 % 1017,1 hPa 0,0 mm 3,3 km/h (1 Bft) SW 225 5 min 2,0 C 3,0 km/h (1 Bft)
20.03.2016 13:20 10,1 C 17,1 C 59 % 1017,1 hPa 0,0 mm 3,6 km/h (1 Bft) NO 45 5 min 2,5 C 10,1 km/h (2 Bft)
20.03.2016 13:25 10,2 C 16,9 C 59 % 1017,1 hPa 0,0 mm 3,6 km/h (1 Bft) SO 135 5 min 2,6 C 3,6 km/h (1 Bft)
20.03.2016 13:30 10,6 C 17,4 C 59 % 1016,7 hPa 0,0 mm 3,6 km/h (1 Bft) NO 45 5 min 2,9 C 9,2 km/h (2 Bft)
20.03.2016 13:35 10,2 C 17,3 C 59 % 1016,7 hPa 0,0 mm 3,6 km/h (1 Bft) S 180 5 min 2,6 C 5,4 km/h (1 Bft)
20.03.2016 13:40 10,7 C 17,7 C 59 % 1016,7 hPa 0,0 mm 3,6 km/h (1 Bft) O 90 5 min 3,0 C 0,0 km/h (0 Bft)
20.03.2016 13:45 11,1 C 18,2 C 58 % 1016,7 hPa 0,0 mm 2,7 km/h (1 Bft) W-NW 292 5 min 3,2 C 7,2 km/h (2 Bft)
20.03.2016 13:50 11,1 C 17,9 C 57 % 1016,3 hPa 0,0 mm 3,3 km/h (1 Bft) SW 225 5 min 2,9 C 4,8 km/h (1 Bft)
20.03.2016 13:55 10,9 C 18,0 C 57 % 1016,3 hPa 0,0 mm 4,2 km/h (1 Bft) W-NW 292 5 min 2,7 C 11,3 km/h (2 Bft)
20.03.2016 14:00 10,9 C 17,8 C 55 % 1016,3 hPa 0,0 mm 4,8 km/h (1 Bft) W 270 5 min 2,2 C 5,1 km/h (1 Bft)
20.03.2016 14:05 11,0 C 17,1 C 56 % 1016,3 hPa 0,0 mm 7,5 km/h (2 Bft) W 270 5 min 2,6 C 18,5 km/h (3 Bft)
20.03.2016 14:10 11,1 C 16,5 C 56 % 1015,9 hPa 0,0 mm 8,0 km/h (2 Bft) N-NW 337 5 min 2,7 C 11,9 km/h (2 Bft)
20.03.2016 14:15 11,6 C 16,4 C 57 % 1015,9 hPa 0,0 mm 8,0 km/h (2 Bft) W-NW 292 5 min 3,4 C 9,8 km/h (2 Bft)
20.03.2016 14:20 11,5 C 16,5 C 56 % 1015,9 hPa 0,0 mm 6,0 km/h (2 Bft) O 90 5 min 3,0 C 0,0 km/h (0 Bft)
20.03.2016 14:25 11,5 C 16,5 C 56 % 1015,9 hPa 0,0 mm 6,9 km/h (2 Bft) N-NW 337 5 min 3,0 C 22,4 km/h (4 Bft)
20.03.2016 14:30 11,6 C 16,1 C 56 % 1015,8 hPa 0,0 mm 8,6 km/h (2 Bft) NW 315 5 min 3,1 C 7,2 km/h (2 Bft)
20.03.2016 14:35 11,7 C 16,2 C 56 % 1015,8 hPa 0,0 mm 8,6 km/h (2 Bft) N-NO 22 5 min 3,2 C 15,2 km/h (3 Bft)
20.03.2016 14:40 11,8 C 16,1 C 56 % 1015,8 hPa 0,0 mm 7,5 km/h (2 Bft) N-NO 22 5 min 3,3 C 7,2 km/h (2 Bft)
20.03.2016 14:45 12,0 C 16,5 C 56 % 1015,8 hPa 0,0 mm 6,6 km/h (2 Bft) N-NW 337 5 min 3,5 C 6,3 km/h (2 Bft)
20.03.2016 14:50 12,1 C 16,9 C 56 % 1015,6 hPa 0,0 mm 3,9 km/h (1 Bft) N 360 5 min 3,6 C 0,0 km/h (0 Bft)
20.03.2016 14:55 11,7 C 16,9 C 55 % 1015,6 hPa 0,0 mm 5,7 km/h (1 Bft) W-SW 247 5 min 3,0 C 6,9 km/h (2 Bft)
20.03.2016 15:00 11,3 C 16,7 C 55 % 1015,6 hPa 0,0 mm 7,5 km/h (2 Bft) W 270 5 min 2,6 C 11,9 km/h (2 Bft)
20.03.2016 15:05 11,1 C 16,4 C 55 % 1015,6 hPa 0,0 mm 7,2 km/h (2 Bft) W-NW 292 5 min 2,4 C 11,3 km/h (2 Bft)
20.03.2016 15:10 11,3 C 16,3 C 55 % 1015,2 hPa 0,0 mm 6,9 km/h (2 Bft) W-SW 247 5 min 2,6 C 5,4 km/h (1 Bft)
20.03.2016 15:15 11,3 C 16,3 C 55 % 1015,2 hPa 0,0 mm 7,5 km/h (2 Bft) S 180 5 min 2,6 C 10,1 km/h (2 Bft)
20.03.2016 15:20 11,4 C 16,1 C 54 % 1015,2 hPa 0,0 mm 6,9 km/h (2 Bft) W-NW 292 5 min 2,4 C 9,8 km/h (2 Bft)
20.03.2016 15:25 11,4 C 16,2 C 55 % 1015,2 hPa 0,0 mm 6,9 km/h (2 Bft) W-NW 292 5 min 2,7 C 8,3 km/h (2 Bft)
20.03.2016 15:30 11,6 C 16,3 C 54 % 1014,8 hPa 0,0 mm 5,7 km/h (1 Bft) SW 225 5 min 2,6 C 6,6 km/h (2 Bft)
20.03.2016 15:35 11,3 C 16,1 C 54 % 1014,8 hPa 0,0 mm 6,3 km/h (2 Bft) W-NW 292 5 min 2,3 C 3,3 km/h (1 Bft)
20.03.2016 15:40 11,4 C 16,3 C 53 % 1014,8 hPa 0,0 mm 6,0 km/h (2 Bft) S-SW 202 5 min 2,2 C 9,8 km/h (2 Bft)
20.03.2016 15:45 10,9 C 16,0 C 53 % 1014,8 hPa 0,0 mm 5,7 km/h (1 Bft) W-SW 247 5 min 1,7 C 10,4 km/h (2 Bft)
20.03.2016 15:50 10,8 C 16,0 C 52 % 1014,4 hPa 0,0 mm 6,9 km/h (2 Bft) W-SW 247 5 min 1,3 C 4,5 km/h (1 Bft)
20.03.2016 15:55 11,0 C 15,9 C 53 % 1014,4 hPa 0,0 mm 6,6 km/h (2 Bft) W-NW 292 5 min 1,8 C 6,3 km/h (2 Bft)
20.03.2016 16:00 11,3 C 15,4 C 54 % 1014,4 hPa 0,0 mm 6,9 km/h (2 Bft) W 270 5 min 2,3 C 6,3 km/h (2 Bft)
20.03.2016 16:05 10,9 C 14,9 C 52 % 1014,4 hPa 0,0 mm 4,8 km/h (1 Bft) N-NO 22 5 min 1,4 C 6,0 km/h (2 Bft)
20.03.2016 16:07 10,9 C 14,9 C 52 % 1014,4 hPa 0,0 mm 4,8 km/h (1 Bft) N-NO 22 2 min 1,4 C 6,0 km/h (2 Bft)
20.03.2016 16:10 10,4 C 14,8 C 53 % 1014,4 hPa 0,0 mm 2,4 km/h (1 Bft) W-NW 292 3 min 1,2 C 0,0 km/h (0 Bft)
20.03.2016 16:15 10,1 C 14,4 C 55 % 1014,4 hPa 0,0 mm 2,7 km/h (1 Bft) N-NO 22 5 min 1,5 C 6,6 km/h (2 Bft)
20.03.2016 16:20 10,0 C 13,7 C 57 % 1014,4 hPa 0,0 mm 5,7 km/h (1 Bft) O-NO 67 5 min 1,9 C 10,7 km/h (2 Bft)
20.03.2016 16:25 9,6 C 12,3 C 58 % 1014,4 hPa 0,0 mm 8,9 km/h (2 Bft) O 90 5 min 1,8 C 6,0 km/h (2 Bft)
20.03.2016 16:30 9,6 C 11,8 C 58 % 1014,2 hPa 0,0 mm 8,6 km/h (2 Bft) O-NO 67 0 min 1,8 C 12,2 km/h (2 Bft)
20.03.2016 16:35 9,4 C 11,1 C 59 % 1014,2 hPa 0,0 mm 7,2 km/h (2 Bft) O-NO 67 0 min 1,8 C 3,3 km/h (1 Bft)
20.03.2016 16:40 9,3 C 11,1 C 59 % 1014,2 hPa 0,0 mm 6,3 km/h (2 Bft) NO 45 0 min 1,7 C 11,6 km/h (2 Bft)
20.03.2016 16:45 9,1 C 11,0 C 59 % 1014,2 hPa 0,0 mm 5,1 km/h (1 Bft) NO 45 0 min 1,5 C 8,3 km/h (2 Bft)
20.03.2016 16:50 9,0 C 10,8 C 59 % 1014,1 hPa 0,0 mm 6,6 km/h (2 Bft) O 90 0 min 1,4 C 5,7 km/h (1 Bft)
20.03.2016 16:55 9,0 C 10,6 C 59 % 1014,1 hPa 0,0 mm 4,8 km/h (1 Bft) NO 45 0 min 1,4 C 5,7 km/h (1 Bft)
20.03.2016 16:58 8,8 C 10,2 C 60 % 1014,1 hPa 0,0 mm 3,9 km/h (1 Bft) O-SO 112 0 min 1,5 C 4,5 km/h (1 Bft)
20.03.2016 17:01 8,8 C 10,2 C 60 % 1014,1 hPa 0,0 mm 3,9 km/h (1 Bft) O-SO 112 0 min 1,5 C 4,5 km/h (1 Bft)
20.03.2016 17:03 8,8 C 10,2 C 60 % 1014,1 hPa 0,0 mm 3,9 km/h (1 Bft) O-SO 112 0 min 1,5 C 4,5 km/h (1 Bft)
20.03.2016 17:05 8,5 C 9,7 C 60 % 1014,1 hPa 0,0 mm 3,9 km/h (1 Bft) O-NO 67 0 min 1,2 C 4,5 km/h (1 Bft)
20.03.2016 17:10 8,4 C 9,4 C 60 % 1014,2 hPa 0,0 mm 2,7 km/h (1 Bft) O-NO 67 0 min 1,1 C 0,0 km/h (0 Bft)
20.03.2016 17:15 8,2 C 9,0 C 60 % 1014,2 hPa 0,0 mm 2,1 km/h (1 Bft) NO 45 0 min 0,9 C 7,2 km/h (2 Bft)
20.03.2016 17:20 8,1 C 8,9 C 61 % 1014,2 hPa 0,0 mm 2,7 km/h (1 Bft) O-NO 67 0 min 1,0 C 3,6 km/h (1 Bft)
20.03.2016 17:25 7,8 C 8,4 C 61 % 1014,2 hPa 0,0 mm 4,2 km/h (1 Bft) O-NO 67 0 min 0,8 C 0,0 km/h (0 Bft)
20.03.2016 17:30 7,6 C 8,1 C 62 % 1014,0 hPa 0,0 mm 3,6 km/h (1 Bft) O 90 0 min 0,8 C 3,9 km/h (1 Bft)
20.03.2016 17:35 7,4 C 7,7 C 63 % 1014,0 hPa 0,0 mm 2,7 km/h (1 Bft) O-SO 112 0 min 0,8 C 0,0 km/h (0 Bft)
20.03.2016 17:40 7,2 C 7,4 C 63 % 1014,0 hPa 0,0 mm 2,1 km/h (1 Bft) O-SO 112 0 min 0,6 C 0,0 km/h (0 Bft)
20.03.2016 17:45 6,9 C 6,9 C 64 % 1014,0 hPa 0,0 mm 0,6 km/h (0 Bft) SO 135 0 min 0,6 C 0,0 km/h (0 Bft)
20.03.2016 17:50 6,8 C 6,8 C 65 % 1014,0 hPa 0,0 mm 0,0 km/h (0 Bft) S-SO 157 0 min 0,7 C 0,0 km/h (0 Bft)
20.03.2016 17:55 6,6 C 6,5 C 66 % 1014,0 hPa 0,0 mm 0,0 km/h (0 Bft) O-SO 112 0 min 0,7 C 0,0 km/h (0 Bft)
20.03.2016 18:00 6,5 C 6,3 C 68 % 1014,0 hPa 0,0 mm 0,0 km/h (0 Bft) W 270 0 min 1,0 C 0,0 km/h (0 Bft)
20.03.2016 18:05 6,3 C 6,1 C 69 % 1014,0 hPa 0,0 mm 0,0 km/h (0 Bft) SO 135 0 min 1,0 C 0,0 km/h (0 Bft)
20.03.2016 18:10 6,3 C 6,0 C 69 % 1014,1 hPa 0,0 mm 0,0 km/h (0 Bft) SO 135 0 min 1,0 C 0,0 km/h (0 Bft)
20.03.2016 18:13 6,0 C 5,7 C 70 % 1014,1 hPa 0,0 mm 0,0 km/h (0 Bft) O-SO 112 0 min 1,0 C 0,0 km/h (0 Bft)
20.03.2016 18:18 5,8 C 5,5 C 71 % 1014,1 hPa 0,0 mm 0,0 km/h (0 Bft) SO 135 0 min 1,0 C 0,0 km/h (0 Bft)
20.03.2016 18:20 5,8 C 5,5 C 71 % 1014,1 hPa 0,0 mm 0,0 km/h (0 Bft) SO 135 0 min 1,0 C 0,0 km/h (0 Bft)
20.03.2016 18:22 5,8 C 5,5 C 71 % 1014,1 hPa 0,0 mm 0,0 km/h (0 Bft) SO 135 0 min 1,0 C 0,0 km/h (0 Bft)
20.03.2016 18:23 5,6 C 5,2 C 71 % 1014,1 hPa 0,0 mm 0,0 km/h (0 Bft) SO 135 0 min 0,8 C 0,0 km/h (0 Bft)
20.03.2016 18:26 5,6 C 5,2 C 71 % 1014,1 hPa 0,0 mm 0,0 km/h (0 Bft) SO 135 0 min 0,8 C 0,0 km/h (0 Bft)
20.03.2016 18:30 5,4 C 5,0 C 72 % 1014,3 hPa 0,0 mm 0,0 km/h (0 Bft) SO 135 0 min 0,8 C 0,0 km/h (0 Bft)
20.03.2016 18:33 5,3 C 4,9 C 73 % 1014,3 hPa 0,0 mm 0,0 km/h (0 Bft) SO 135 0 min 0,9 C 0,0 km/h (0 Bft)
20.03.2016 18:35 5,3 C 4,9 C 73 % 1014,3 hPa 0,0 mm 0,0 km/h (0 Bft) SO 135 0 min 0,9 C 0,0 km/h (0 Bft)
20.03.2016 18:40 5,2 C 4,7 C 73 % 1014,3 hPa 0,0 mm 0,0 km/h (0 Bft) SO 135 0 min 0,8 C 0,0 km/h (0 Bft)
20.03.2016 18:45 5,0 C 4,5 C 74 % 1014,3 hPa 0,0 mm 0,6 km/h (0 Bft) SO 135 0 min 0,8 C 3,0 km/h (1 Bft)
20.03.2016 18:45 5,0 C 4,5 C 74 % 1014,3 hPa 0,0 mm 0,6 km/h (0 Bft) SO 135 0 min 0,8 C 3,0 km/h (1 Bft)
20.03.2016 18:50 5,0 C 4,5 C 75 % 1014,2 hPa 0,0 mm 0,9 km/h (0 Bft) SO 135 0 min 0,9 C 0,0 km/h (0 Bft)
20.03.2016 18:55 4,9 C 4,4 C 76 % 1014,2 hPa 0,0 mm 0,6 km/h (0 Bft) S-SO 157 0 min 1,0 C 0,0 km/h (0 Bft)
20.03.2016 19:00 4,9 C 4,4 C 76 % 1014,2 hPa 0,0 mm 0,0 km/h (0 Bft) SO 135 0 min 1,0 C 0,0 km/h (0 Bft)
20.03.2016 19:02 4,9 C 4,4 C 76 % 1014,2 hPa 0,0 mm 0,0 km/h (0 Bft) SO 135 0 min 1,0 C 0,0 km/h (0 Bft)
20.03.2016 19:05 4,9 C 4,5 C 77 % 1014,2 hPa 0,0 mm 0,0 km/h (0 Bft) SO 135 0 min 1,2 C 0,0 km/h (0 Bft)
20.03.2016 19:10 4,7 C 4,4 C 77 % 1014,4 hPa 0,0 mm 0,0 km/h (0 Bft) N-NO 22 0 min 1,0 C 0,0 km/h (0 Bft)
20.03.2016 19:15 3,8 C 3,7 C 75 % 1014,4 hPa 0,0 mm 0,0 km/h (0 Bft) O 90 0 min -0,2 C 0,0 km/h (0 Bft)
20.03.2016 19:15 3,8 C 3,7 C 75 % 1014,4 hPa 0,0 mm 0,0 km/h (0 Bft) O 90 0 min -0,2 C 0,0 km/h (0 Bft)
20.03.2016 19:20 3,8 C 3,5 C 76 % 1014,4 hPa 0,0 mm 0,0 km/h (0 Bft) O-NO 67 0 min -0,0 C 0,0 km/h (0 Bft)
20.03.2016 19:26 3,5 C 3,2 C 76 % 1014,4 hPa 0,0 mm 0,0 km/h (0 Bft) S 180 0 min -0,3 C 0,0 km/h (0 Bft)
20.03.2016 19:30 3,7 C 3,2 C 76 % 1014,5 hPa 0,0 mm 0,0 km/h (0 Bft) SO 135 0 min -0,1 C 0,0 km/h (0 Bft)
20.03.2016 19:31 3,7 C 3,2 C 76 % 1014,5 hPa 0,0 mm 0,0 km/h (0 Bft) SO 135 0 min -0,1 C 0,0 km/h (0 Bft)
20.03.2016 19:35 3,8 C 3,2 C 78 % 1014,5 hPa 0,0 mm 0,3 km/h (0 Bft) S 180 0 min 0,3 C 3,6 km/h (1 Bft)
20.03.2016 19:40 3,7 C 3,3 C 75 % 1014,5 hPa 0,0 mm 0,3 km/h (0 Bft) S 180 0 min -0,3 C 0,0 km/h (0 Bft)
20.03.2016 19:45 3,4 C 3,0 C 79 % 1014,5 hPa 0,0 mm 0,0 km/h (0 Bft) O-NO 67 0 min 0,1 C 0,0 km/h (0 Bft)
20.03.2016 19:45 3,4 C 3,0 C 79 % 1014,5 hPa 0,0 mm 0,0 km/h (0 Bft) O-NO 67 0 min 0,1 C 0,0 km/h (0 Bft)
20.03.2016 19:50 3,1 C 2,7 C 78 % 1014,8 hPa 0,0 mm 0,0 km/h (0 Bft) S-SO 157 0 min -0,4 C 0,0 km/h (0 Bft)
20.03.2016 19:55 3,4 C 3,0 C 76 % 1014,8 hPa 0,0 mm 1,2 km/h (1 Bft) S-SO 157 0 min -0,4 C 3,0 km/h (1 Bft)
20.03.2016 20:00 3,4 C 3,2 C 76 % 1014,8 hPa 0,0 mm 1,8 km/h (1 Bft) S-SO 157 0 min -0,4 C 3,3 km/h (1 Bft)
20.03.2016 20:01 3,4 C 3,2 C 76 % 1014,8 hPa 0,0 mm 1,8 km/h (1 Bft) S-SO 157 0 min -0,4 C 3,3 km/h (1 Bft)
20.03.2016 20:12 3,6 C 3,6 C 77 % 1014,8 hPa 0,0 mm 3,9 km/h (1 Bft) SO 135 0 min -0,0 C 4,5 km/h (1 Bft)
20.03.2016 20:15 3,7 C 3,7 C 77 % 1014,8 hPa 0,0 mm 3,0 km/h (1 Bft) S-SO 157 0 min 0,1 C 0,0 km/h (0 Bft)
20.03.2016 20:15 3,7 C 3,7 C 77 % 1014,8 hPa 0,0 mm 3,0 km/h (1 Bft) S-SO 157 0 min 0,1 C 0,0 km/h (0 Bft)
20.03.2016 20:20 3,7 C 3,8 C 77 % 1014,8 hPa 0,0 mm 1,5 km/h (1 Bft) O 90 0 min 0,1 C 0,0 km/h (0 Bft)
20.03.2016 20:25 3,4 C 3,6 C 80 % 1014,8 hPa 0,0 mm 0,0 km/h (0 Bft) O-NO 67 0 min 0,3 C 0,0 km/h (0 Bft)
20.03.2016 20:30 3,3 C 3,6 C 79 % 1014,9 hPa 0,0 mm 0,0 km/h (0 Bft) O-NO 67 0 min 0,0 C 0,0 km/h (0 Bft)
20.03.2016 20:30 3,3 C 3,6 C 79 % 1014,9 hPa 0,0 mm 0,0 km/h (0 Bft) O-NO 67 0 min 0,0 C 0,0 km/h (0 Bft)
20.03.2016 20:35 3,4 C 3,4 C 80 % 1014,9 hPa 0,0 mm 0,0 km/h (0 Bft) SO 135 0 min 0,3 C 0,0 km/h (0 Bft)
20.03.2016 20:40 3,6 C 3,6 C 77 % 1014,9 hPa 0,0 mm 0,0 km/h (0 Bft) SO 135 0 min -0,0 C 0,0 km/h (0 Bft)
20.03.2016 20:45 3,5 C 3,5 C 80 % 1014,9 hPa 0,0 mm 0,0 km/h (0 Bft) O-NO 67 0 min 0,4 C 0,0 km/h (0 Bft)
20.03.2016 20:45 3,5 C 3,5 C 80 % 1014,9 hPa 0,0 mm 0,0 km/h (0 Bft) O-NO 67 0 min 0,4 C 0,0 km/h (0 Bft)
20.03.2016 20:50 3,4 C 3,3 C 80 % 1015,1 hPa 0,0 mm 0,0 km/h (0 Bft) NO 45 0 min 0,3 C 4,2 km/h (1 Bft)
20.03.2016 20:55 3,4 C 3,3 C 81 % 1015,1 hPa 0,0 mm 1,8 km/h (1 Bft) SO 135 0 min 0,5 C 3,3 km/h (1 Bft)
20.03.2016 21:00 3,4 C 3,2 C 81 % 1015,1 hPa 0,0 mm 2,1 km/h (1 Bft) O-NO 67 0 min 0,5 C 3,6 km/h (1 Bft)
20.03.2016 21:01 3,4 C 3,2 C 81 % 1015,1 hPa 0,0 mm 2,1 km/h (1 Bft) O-NO 67 0 min 0,5 C 3,6 km/h (1 Bft)
20.03.2016 21:05 3,2 C 3,0 C 80 % 1015,1 hPa 0,0 mm 0,6 km/h (0 Bft) O-SO 112 0 min 0,1 C 0,0 km/h (0 Bft)
20.03.2016 21:10 3,3 C 3,1 C 80 % 1015,2 hPa 0,0 mm 0,6 km/h (0 Bft) S 180 0 min 0,2 C 0,0 km/h (0 Bft)
20.03.2016 21:15 3,1 C 2,8 C 79 % 1015,2 hPa 0,0 mm 0,0 km/h (0 Bft) O 90 0 min -0,2 C 0,0 km/h (0 Bft)
20.03.2016 21:15 3,1 C 2,8 C 79 % 1015,2 hPa 0,0 mm 0,0 km/h (0 Bft) O 90 0 min -0,2 C 0,0 km/h (0 Bft)
20.03.2016 21:20 3,2 C 2,8 C 79 % 1015,2 hPa 0,0 mm 0,0 km/h (0 Bft) SO 135 0 min -0,1 C 0,0 km/h (0 Bft)
20.03.2016 21:25 3,2 C 2,8 C 79 % 1015,2 hPa 0,0 mm 0,0 km/h (0 Bft) O 90 0 min -0,1 C 0,0 km/h (0 Bft)
20.03.2016 21:27 3,2 C 2,8 C 79 % 1015,2 hPa 0,0 mm 0,0 km/h (0 Bft) O 90 0 min -0,1 C 0,0 km/h (0 Bft)
20.03.2016 21:30 3,2 C 2,8 C 78 % 1015,2 hPa 0,0 mm 0,0 km/h (0 Bft) S 180 0 min -0,3 C 0,0 km/h (0 Bft)
20.03.2016 21:35 3,2 C 2,8 C 77 % 1015,2 hPa 0,0 mm 0,0 km/h (0 Bft) O-SO 112 0 min -0,4 C 0,0 km/h (0 Bft)
20.03.2016 21:40 3,2 C 2,9 C 77 % 1015,2 hPa 0,0 mm 0,0 km/h (0 Bft) S-SO 157 0 min -0,4 C 0,0 km/h (0 Bft)
20.03.2016 21:45 3,2 C 3,0 C 77 % 1015,2 hPa 0,0 mm 0,3 km/h (0 Bft) O-SO 112 0 min -0,4 C 0,0 km/h (0 Bft)
20.03.2016 21:50 3,1 C 2,9 C 76 % 1015,1 hPa 0,0 mm 0,3 km/h (0 Bft) S-SO 157 0 min -0,7 C 0,0 km/h (0 Bft)
20.03.2016 21:55 3,0 C 2,8 C 76 % 1015,1 hPa 0,0 mm 0,0 km/h (0 Bft) S-SW 202 0 min -0,8 C 0,0 km/h (0 Bft)
20.03.2016 22:00 3,0 C 2,9 C 76 % 1015,1 hPa 0,0 mm 0,0 km/h (0 Bft) N 360 0 min -0,8 C 0,0 km/h (0 Bft)
20.03.2016 22:05 2,8 C 2,7 C 77 % 1015,1 hPa 0,0 mm 0,0 km/h (0 Bft) W-NW 292 0 min -0,8 C 0,0 km/h (0 Bft)
20.03.2016 22:10 2,7 C 2,6 C 77 % 1015,4 hPa 0,0 mm 0,0 km/h (0 Bft) W-SW 247 0 min -0,9 C 0,0 km/h (0 Bft)
20.03.2016 22:15 2,7 C 2,5 C 77 % 1015,4 hPa 0,0 mm 0,0 km/h (0 Bft) SO 135 0 min -0,9 C 0,0 km/h (0 Bft)
20.03.2016 22:20 2,7 C 2,5 C 77 % 1015,4 hPa 0,0 mm 0,0 km/h (0 Bft) S-SO 157 0 min -0,9 C 0,0 km/h (0 Bft)
20.03.2016 22:25 2,7 C 2,3 C 77 % 1015,4 hPa 0,0 mm 0,3 km/h (0 Bft) S-SO 157 0 min -0,9 C 0,0 km/h (0 Bft)
20.03.2016 22:30 2,5 C 2,2 C 77 % 1015,4 hPa 0,0 mm 0,6 km/h (0 Bft) O-SO 112 0 min -1,1 C 0,0 km/h (0 Bft)
20.03.2016 22:35 2,5 C 2,1 C 77 % 1015,4 hPa 0,0 mm 0,3 km/h (0 Bft) S-SO 157 0 min -1,1 C 0,0 km/h (0 Bft)
20.03.2016 22:40 2,4 C 2,1 C 78 % 1015,4 hPa 0,0 mm 0,0 km/h (0 Bft) O-SO 112 0 min -1,0 C 0,0 km/h (0 Bft)
20.03.2016 22:45 2,1 C 1,9 C 77 % 1015,4 hPa 0,0 mm 0,3 km/h (0 Bft) NO 45 0 min -1,5 C 0,0 km/h (0 Bft)
20.03.2016 22:50 2,1 C 1,9 C 77 % 1015,6 hPa 0,0 mm 0,6 km/h (0 Bft) NO 45 0 min -1,5 C 0,0 km/h (0 Bft)
20.03.2016 22:55 2,1 C 1,8 C 78 % 1015,6 hPa 0,0 mm 3,6 km/h (1 Bft) O-NO 67 0 min -1,3 C 4,5 km/h (1 Bft)
20.03.2016 23:00 1,9 C 1,6 C 78 % 1015,6 hPa 0,0 mm 4,8 km/h (1 Bft) O-NO 67 0 min -1,5 C 9,5 km/h (2 Bft)
20.03.2016 23:05 1,6 C 1,1 C 78 % 1015,6 hPa 0,0 mm 6,3 km/h (2 Bft) O-NO 67 0 min -1,8 C 14,3 km/h (3 Bft)
20.03.2016 23:10 1,4 C 0,8 C 78 % 1015,7 hPa 0,0 mm 6,6 km/h (2 Bft) N-NO 22 0 min -2,0 C 4,8 km/h (1 Bft)
20.03.2016 23:15 1,2 C 0,8 C 79 % 1015,7 hPa 0,0 mm 4,5 km/h (1 Bft) O-NO 67 0 min -2,0 C 3,0 km/h (1 Bft)
20.03.2016 23:20 0,8 C 0,4 C 79 % 1015,7 hPa 0,0 mm 2,4 km/h (1 Bft) N-NW 337 0 min -2,4 C 0,0 km/h (0 Bft)
20.03.2016 23:25 0,6 C 0,1 C 78 % 1015,7 hPa 0,0 mm 0,3 km/h (0 Bft) O-SO 112 0 min -2,8 C 0,0 km/h (0 Bft)
20.03.2016 23:30 0,3 C -0,2 C 78 % 1015,6 hPa 0,0 mm 0,3 km/h (0 Bft) O-NO 67 0 min -3,1 C 0,0 km/h (0 Bft)
20.03.2016 23:35 0,2 C -0,5 C 79 % 1015,6 hPa 0,0 mm 0,0 km/h (0 Bft) O-SO 112 0 min -3,0 C 0,0 km/h (0 Bft)
20.03.2016 23:40 0,1 C -0,5 C 79 % 1015,6 hPa 0,0 mm 0,0 km/h (0 Bft) O-NO 67 0 min -3,1 C 0,0 km/h (0 Bft)
20.03.2016 23:45 -0,1 C -0,7 C 80 % 1015,6 hPa 0,0 mm 0,9 km/h (0 Bft) S 180 0 min -3,1 C 7,2 km/h (2 Bft)
20.03.2016 23:50 0,0 C -0,6 C 81 % 1015,5 hPa 0,0 mm 1,8 km/h (1 Bft) O-NO 67 0 min -2,9 C 3,3 km/h (1 Bft)
20.03.2016 23:55 -0,1 C -0,6 C 82 % 1015,5 hPa 0,0 mm 2,1 km/h (1 Bft) O-SO 112 0 min -2,8 C 0,0 km/h (0 Bft)
_ Min-Zeit 07:05 06:45 16:07 18:05 - 23:40 - - - 07:05 23:55
Minimum _ -1,5 C -1,5 C 52 % 1014,0 hPa - 0,0 km/h (0 Bft) - - - -3,8 C 0,0 km/h (0 Bft)
_ Max-Zeit 14:50 13:45 03:20 12:25 23:55 16:25 - - 16:25 14:50 14:25
Maximum _ 12,1 C 18,2 C 89 % 1017,8 hPa 0,0 mm 8,9 km/h
O (2 Bft)
- - 5 min 3,6 C 22,4 km/h
N-NW (4 Bft)
Durchschnitt _ 3,4 C 5,0 C 77 % 1015,9 hPa #0,0 mm 2,5 km/h (1 Bft) O-NO - #6:00 h -0,5 C 3,3 km/h (1 Bft)